When you browse on this site, cookies collect data to enhance your experience and personalize the content and advertising you see.
Visit our Privacy Policy to learn more. By continuing to use the site, you agree to this use of cookies and data.
  • en France
  • Liste des pays
  • À 7 jours
  • Température de l'eau
  • Carte météo
  • Widgets météo
  • user-avatar
    Se connecter

    Météo par heure à Paris

    Ce jour, 14 Novembre, Jeudi

    Heure Température Précipitation Vent Pression Humidité
    00:00 +4°C° 0 mm 7 m/s 741 mmHg 76%
    01:00 +4°C° 0.9 mm 7 m/s 741 mmHg 79%
    02:00 +4°C° 0.9 mm 6 m/s 740 mmHg 83%
    03:00 +4°C° 0.9 mm 6 m/s 740 mmHg 86%
    04:00 +5°C° 0.4 mm 5 m/s 740 mmHg 85%
    05:00 +5°C° 0.4 mm 4 m/s 741 mmHg 84%
    06:00 +4°C° 0.4 mm 3 m/s 741 mmHg 84%
    07:00 +4°C° 0 mm 3 m/s 742 mmHg 83%
    08:00 +4°C° 0 mm 3 m/s 742 mmHg 83%
    09:00 +4°C° 0 mm 4 m/s 743 mmHg 83%
    10:00 +5°C° 0 mm 3 m/s 743 mmHg 79%
    11:00 +7°C° 0 mm 3 m/s 743 mmHg 75%
    12:00 +7°C° 0 mm 2 m/s 743 mmHg 71%
    13:00 +8°C° 0 mm 2 m/s 744 mmHg 71%
    14:00 +8°C° 0 mm 2 m/s 744 mmHg 71%
    15:00 +9°C° 0 mm 1 m/s 744 mmHg 72%
    16:00 +8°C° 0 mm 1 m/s 744 mmHg 75%
    17:00 +7°C° 0 mm 1 m/s 744 mmHg 79%
    18:00 +7°C° 0 mm 1 m/s 745 mmHg 83%
    19:00 +6°C° 0 mm 2 m/s 745 mmHg 84%
    20:00 +5°C° 0 mm 2 m/s 745 mmHg 85%
    21:00 +5°C° 0 mm 2 m/s 745 mmHg 86%
    22:00 +5°C° 0 mm 2 m/s 745 mmHg 87%
    23:00 +5°C° 0 mm 2 m/s 745 mmHg 87%

    Demain, 15 Novembre, Vendredi

    Heure Température Précipitation Vent Pression Humidité
    00:00 +4°C° 0 mm 3 m/s 745 mmHg 88%
    01:00 +4°C° 0.2 mm 3 m/s 744 mmHg 87%
    02:00 +4°C° 0.2 mm 3 m/s 744 mmHg 87%
    03:00 +4°C° 0.2 mm 3 m/s 744 mmHg 87%
    04:00 +4°C° 0.4 mm 4 m/s 744 mmHg 87%
    05:00 +4°C° 0.4 mm 4 m/s 744 mmHg 88%
    06:00 +4°C° 0.4 mm 4 m/s 744 mmHg 88%
    07:00 +3°C° 0.8 mm 3 m/s 744 mmHg 90%
    08:00 +3°C° 0.8 mm 3 m/s 745 mmHg 92%
    09:00 +4°C° 0.8 mm 2 m/s 745 mmHg 94%
    10:00 +4°C° 1.1 mm 2 m/s 745 mmHg 94%
    11:00 +4°C° 1.1 mm 2 m/s 745 mmHg 94%
    12:00 +5°C° 1.1 mm 1 m/s 745 mmHg 94%
    13:00 +5°C° 0.1 mm 1 m/s 745 mmHg 92%
    14:00 +5°C° 0.1 mm 1 m/s 745 mmHg 90%
    15:00 +5°C° 0.1 mm 1 m/s 745 mmHg 88%
    16:00 +5°C° 0 mm 1 m/s 745 mmHg 88%
    17:00 +5°C° 0 mm 1 m/s 745 mmHg 87%
    18:00 +5°C° 0 mm 1 m/s 746 mmHg 87%
    19:00 +5°C° 0 mm 1 m/s 746 mmHg 88%
    20:00 +5°C° 0 mm 1 m/s 747 mmHg 88%
    21:00 +5°C° 0 mm 1 m/s 747 mmHg 89%
    22:00 +4°C° 0 mm 2 m/s 748 mmHg 88%
    23:00 +4°C° 0 mm 2 m/s 748 mmHg 86%

    Après-demain, 16 Novembre, Samedi

    Heure Température Précipitation Vent Pression Humidité
    00:00 +5°C° 0 mm 2 m/s 748 mmHg 85%
    01:00 +5°C° 0 mm 2 m/s 749 mmHg 86%
    02:00 +5°C° 0 mm 2 m/s 749 mmHg 87%
    03:00 +5°C° 0 mm 2 m/s 749 mmHg 87%
    04:00 +5°C° 0 mm 2 m/s 749 mmHg 87%
    05:00 +5°C° 0 mm 2 m/s 750 mmHg 87%
    06:00 +5°C° 0 mm 2 m/s 750 mmHg 87%
    07:00 +5°C° 0 mm 2 m/s 751 mmHg 86%
    08:00 +5°C° 0 mm 2 m/s 751 mmHg 85%
    09:00 +5°C° 0 mm 2 m/s 752 mmHg 84%
    10:00 +6°C° 0 mm 2 m/s 752 mmHg 82%
    11:00 +6°C° 0 mm 2 m/s 753 mmHg 80%
    12:00 +7°C° 0 mm 2 m/s 753 mmHg 78%
    13:00 +7°C° 0 mm 2 m/s 753 mmHg 77%
    14:00 +7°C° 0 mm 2 m/s 753 mmHg 76%
    15:00 +7°C° 0 mm 2 m/s 753 mmHg 75%
    16:00 +7°C° 0 mm 2 m/s 753 mmHg 77%
    17:00 +7°C° 0 mm 1 m/s 754 mmHg 80%
    18:00 +6°C° 0 mm 1 m/s 754 mmHg 83%
    19:00 +6°C° 0 mm 1 m/s 754 mmHg 84%
    20:00 +6°C° 0 mm 1 m/s 755 mmHg 84%
    21:00 +6°C° 0 mm 1 m/s 755 mmHg 85%
    22:00 +5°C° 0 mm 1 m/s 755 mmHg 85%
    23:00 +5°C° 0 mm 1 m/s 755 mmHg 86%

    17 Novembre, Dimanche

    Heure Température Précipitation Vent Pression Humidité
    00:00 +5°C° 0 mm 1 m/s 755 mmHg 86%
    01:00 +5°C° 0 mm 1 m/s 755 mmHg 86%
    02:00 +5°C° 0 mm 1 m/s 754 mmHg 86%
    03:00 +5°C° 0 mm 1 m/s 754 mmHg 86%
    04:00 +4°C° 0 mm 0 m/s 754 mmHg 86%
    05:00 +4°C° 0 mm 0 m/s 754 mmHg 86%
    06:00 +4°C° 0 mm 0 m/s 754 mmHg 86%
    07:00 +4°C° 0 mm 0 m/s 754 mmHg 84%
    08:00 +5°C° 0 mm 0 m/s 754 mmHg 82%
    09:00 +6°C° 0 mm 1 m/s 754 mmHg 80%
    10:00 +7°C° 0 mm 1 m/s 754 mmHg 75%
    11:00 +8°C° 0 mm 1 m/s 754 mmHg 71%
    12:00 +9°C° 0 mm 1 m/s 753 mmHg 66%
    13:00 +9°C° 0 mm 1 m/s 753 mmHg 66%
    14:00 +9°C° 0 mm 1 m/s 753 mmHg 66%
    15:00 +9°C° 0 mm 1 m/s 753 mmHg 66%
    16:00 +8°C° 0 mm 1 m/s 753 mmHg 69%
    17:00 +7°C° 0 mm 1 m/s 753 mmHg 73%
    18:00 +6°C° 0 mm 1 m/s 753 mmHg 77%
    19:00 +6°C° 0 mm 1 m/s 752 mmHg 79%
    20:00 +5°C° 0 mm 2 m/s 752 mmHg 81%
    21:00 +5°C° 0 mm 2 m/s 752 mmHg 83%
    22:00 +5°C° 0.1 mm 2 m/s 752 mmHg 85%
    23:00 +6°C° 0.1 mm 1 m/s 752 mmHg 86%

    18 Novembre, Lundi

    Heure Température Précipitation Vent Pression Humidité
    00:00 +6°C° 0.1 mm 1 m/s 752 mmHg 87%
    01:00 +7°C° 0.4 mm 1 m/s 752 mmHg 89%
    02:00 +7°C° 0.4 mm 1 m/s 751 mmHg 90%
    03:00 +7°C° 0.4 mm 1 m/s 751 mmHg 92%
    04:00 +7°C° 0.2 mm 1 m/s 751 mmHg 91%
    05:00 +7°C° 0.2 mm 1 m/s 751 mmHg 91%
    06:00 +7°C° 0.2 mm 1 m/s 751 mmHg 90%
    07:00 +7°C° 0 mm 1 m/s 751 mmHg 89%
    08:00 +7°C° 0 mm 1 m/s 751 mmHg 87%
    09:00 +7°C° 0 mm 1 m/s 752 mmHg 86%
    10:00 +7°C° 0 mm 2 m/s 752 mmHg 82%
    11:00 +8°C° 0 mm 2 m/s 752 mmHg 78%
    12:00 +8°C° 0 mm 3 m/s 752 mmHg 75%
    13:00 +8°C° 0.2 mm 3 m/s 752 mmHg 77%
    14:00 +7°C° 0.2 mm 4 m/s 752 mmHg 80%
    15:00 +7°C° 0.2 mm 4 m/s 752 mmHg 82%
    16:00 +6°C° 0.1 mm 4 m/s 752 mmHg 83%
    17:00 +7°C° 0.1 mm 3 m/s 753 mmHg 84%
    18:00 +5°C° 0.1 mm 3 m/s 753 mmHg 86%
    19:00 +5°C° 0 mm 3 m/s 753 mmHg 86%
    20:00 +5°C° 0 mm 2 m/s 754 mmHg 86%
    21:00 +5°C° 0 mm 2 m/s 754 mmHg 86%
    22:00 +5°C° 0 mm 2 m/s 754 mmHg 85%
    23:00 +4°C° 0 mm 2 m/s 754 mmHg 84%

    19 Novembre, Mardi

    Heure Température Précipitation Vent Pression Humidité
    00:00 +4°C° 0 mm 2 m/s 754 mmHg 83%
    01:00 +4°C° 0 mm 2 m/s 754 mmHg 82%
    02:00 +4°C° 0 mm 2 m/s 754 mmHg 81%
    03:00 +3°C° 0 mm 2 m/s 754 mmHg 81%
    04:00 +3°C° 0 mm 2 m/s 754 mmHg 82%
    05:00 +3°C° 0 mm 2 m/s 754 mmHg 83%
    06:00 +3°C° 0 mm 2 m/s 754 mmHg 84%
    07:00 +2°C° 0 mm 3 m/s 753 mmHg 84%
    08:00 +3°C° 0 mm 4 m/s 753 mmHg 84%
    09:00 +4°C° 0 mm 4 m/s 753 mmHg 84%
    10:00 +5°C° 0 mm 4 m/s 753 mmHg 79%
    11:00 +6°C° 0 mm 5 m/s 752 mmHg 74%
    12:00 +7°C° 0 mm 5 m/s 752 mmHg 69%
    13:00 +7°C° 0.1 mm 5 m/s 751 mmHg 70%
    14:00 +7°C° 0.1 mm 5 m/s 750 mmHg 71%
    15:00 +7°C° 0.1 mm 5 m/s 750 mmHg 72%
    16:00 +7°C° 0 mm 5 m/s 750 mmHg 73%
    17:00 +6°C° 0 mm 5 m/s 749 mmHg 74%
    18:00 +5°C° 0 mm 6 m/s 749 mmHg 76%
    19:00 +5°C° 0.1 mm 6 m/s 749 mmHg 79%
    20:00 +6°C° 0.1 mm 5 m/s 748 mmHg 82%
    21:00 +6°C° 0.1 mm 5 m/s 748 mmHg 85%
    22:00 +6°C° 0.1 mm 5 m/s 748 mmHg 85%
    23:00 +6°C° 0.1 mm 5 m/s 748 mmHg 85%
    Voir plus